| time (UTC) | temp F | wind direction | speed MPH | gust MPH | rain 1hr in | rain 24hr in | rain mn in | humidity % | barometer mb |
| 20260904233053 | 80 | 341 | 0.0 | 0.0 | 0.00 | 0.36 | 0.36 | 86 | 1010.2 |
| 20260904231551 | 81 | 335 | 0.0 | 0.0 | 0.00 | 0.36 | 0.36 | 84 | 1010.1 |
| 20260904230048 | 81 | 332 | 0.0 | 0.0 | 0.00 | 0.36 | 0.36 | 80 | 1010.9 |
| 20260904224546 | 82 | 332 | 0.0 | 0.0 | 0.00 | 0.36 | 0.36 | 78 | 1011.2 |
| 20260904223051 | 82 | 332 | 0.0 | 1.0 | 0.00 | 0.36 | 0.36 | 76 | 1011.7 |
| 20260904221551 | 83 | 332 | 0.0 | 1.0 | 0.00 | 0.36 | 0.36 | 75 | 1012.1 |
| 20260904220101 | 84 | 332 | 0.0 | 1.0 | 0.00 | 0.36 | 0.36 | 72 | 1012.1 |
| 20260904214544 | 84 | 331 | 1.0 | 3.0 | 0.00 | 0.36 | 0.36 | 70 | 1011.9 |
| 20260904213044 | 84 | 331 | 0.0 | 2.0 | 0.00 | 0.36 | 0.36 | 69 | 1011.5 |
| 20260904211551 | 85 | 333 | 1.0 | 3.0 | 0.00 | 0.36 | 0.36 | 68 | 1011.5 |
| 20260904210046 | 86 | 331 | 0.0 | 3.0 | 0.00 | 0.36 | 0.36 | 67 | 1011.5 |
| 20260904204541 | 86 | 304 | 1.0 | 5.0 | 0.00 | 0.36 | 0.36 | 66 | 1011.5 |
| 20260904203041 | 87 | 275 | 2.0 | 6.0 | 0.00 | 0.36 | 0.36 | 64 | 1011.5 |
| 20260904201541 | 87 | 315 | 2.0 | 4.0 | 0.00 | 0.36 | 0.36 | 64 | 1011.6 |
| 20260904200050 | 87 | 269 | 0.0 | 2.0 | 0.00 | 0.36 | 0.36 | 64 | 1011.5 |
| 20260904194621 | 88 | 284 | 2.0 | 9.0 | 0.00 | 0.36 | 0.36 | 61 | 1011.6 |
| 20260904193042 | 88 | 282 | 1.0 | 3.0 | 0.00 | 0.36 | 0.36 | 61 | 1011.8 |
| 20260904191535 | 89 | 275 | 0.0 | 3.0 | 0.00 | 0.36 | 0.36 | 62 | 1012.0 |
| 20260904190036 | 89 | 285 | 1.0 | 4.0 | 0.00 | 0.36 | 0.36 | 63 | 1012.0 |
| 20260904184534 | 89 | 268 | 0.0 | 2.0 | 0.00 | 0.36 | 0.36 | 63 | 1012.3 |
| 20260904183032 | 88 | 141 | 0.0 | 3.0 | 0.00 | 0.36 | 0.36 | 64 | 1012.4 |
| 20260904181529 | 88 | 133 | 0.0 | 3.0 | 0.00 | 0.36 | 0.36 | 63 | 1012.4 |
| 20260904180028 | 87 | 292 | 1.0 | 4.0 | 0.00 | 0.36 | 0.36 | 65 | 1012.5 |
| 20260904174527 | 87 | 270 | 1.0 | 5.0 | 0.00 | 0.36 | 0.36 | 66 | 1012.5 |
| 20260904173035 | 87 | 329 | 2.0 | 4.0 | 0.00 | 0.36 | 0.36 | 66 | 1012.8 |
| 20260904171532 | 86 | 260 | 1.0 | 4.0 | 0.00 | 0.36 | 0.36 | 68 | 1012.7 |
| 20260904170022 | 85 | 277 | 0.0 | 3.0 | 0.00 | 0.36 | 0.36 | 70 | 1012.7 |
| 20260904164527 | 85 | 300 | 2.0 | 6.0 | 0.00 | 0.36 | 0.36 | 66 | 1012.8 |
| 20260904163022 | 85 | 298 | 1.0 | 4.0 | 0.00 | 0.36 | 0.36 | 66 | 1013.0 |
| 20260904161523 | 85 | 274 | 1.0 | 4.0 | 0.00 | 0.36 | 0.36 | 67 | 1013.0 |
| 20260904160018 | 84 | 294 | 1.0 | 5.0 | 0.00 | 0.36 | 0.36 | 68 | 1013.0 |
| 20260904154515 | 84 | 275 | 2.0 | 4.0 | 0.00 | 0.36 | 0.36 | 70 | 1013.2 |
| 20260904153021 | 83 | 323 | 2.0 | 8.0 | 0.00 | 0.36 | 0.36 | 73 | 1013.3 |
| 20260904151516 | 82 | 333 | 1.0 | 8.0 | 0.00 | 0.36 | 0.36 | 73 | 1013.2 |
| 20260904150009 | 82 | 289 | 1.0 | 6.0 | 0.00 | 0.36 | 0.36 | 74 | 1013.2 |
| 20260904144506 | 81 | 227 | 0.0 | 8.0 | 0.00 | 0.36 | 0.36 | 78 | 1013.4 |
| 20260904143006 | 81 | 349 | 2.0 | 8.0 | 0.00 | 0.36 | 0.36 | 79 | 1013.5 |
| 20260904141501 | 80 | 273 | 0.0 | 3.0 | 0.00 | 0.36 | 0.36 | 83 | 1013.2 |
| 20260904140108 | 79 | 275 | 0.0 | 3.0 | 0.00 | 0.36 | 0.36 | 85 | 1013.1 |
| 20260904134611 | 78 | 277 | 0.0 | 1.0 | 0.00 | 0.36 | 0.36 | 89 | 1013.1 |
| 20260904133111 | 77 | 280 | 0.0 | 4.0 | 0.00 | 0.36 | 0.36 | 89 | 1013.2 |
| 20260904131613 | 77 | 286 | 1.0 | 3.0 | 0.00 | 0.36 | 0.36 | 91 | 1013.2 |
| 20260904130057 | 76 | 274 | 1.0 | 3.0 | 0.00 | 0.36 | 0.36 | 92 | 1013.2 |
| 20260904124557 | 75 | 277 | 0.0 | 2.0 | 0.00 | 0.36 | 0.36 | 94 | 1013.3 |
| 20260904123104 | 74 | 102 | 0.0 | 1.0 | 0.00 | 0.36 | 0.36 | 96 | 1013.1 |
| 20260904121556 | 74 | 169 | 0.0 | 1.0 | 0.00 | 0.36 | 0.36 | 96 | 1013.5 |
| 20260904120055 | 73 | 134 | 0.0 | 1.0 | 0.00 | 0.36 | 0.36 | 96 | 1013.4 |
| 20260904114555 | 73 | 242 | 0.0 | 0.0 | 0.00 | 0.36 | 0.36 | 96 | 1013.4 |
| 20260904113059 | 73 | 244 | 0.0 | 1.0 | 0.00 | 0.36 | 0.36 | 95 | 1013.3 |
| 20260904111554 | 73 | 243 | 0.0 | 1.0 | 0.00 | 0.36 | 0.36 | 95 | 1013.3 |
| 20260904110053 | 72 | 233 | 0.0 | 1.0 | 0.00 | 0.36 | 0.36 | 95 | 1013.3 |
| 20260904104553 | 72 | 230 | 0.0 | 0.0 | 0.00 | 0.36 | 0.36 | 95 | 1012.8 |
| 20260904103053 | 72 | 230 | 0.0 | 1.0 | 0.00 | 0.36 | 0.36 | 95 | 1012.6 |
| 20260904101554 | 72 | 230 | 0.0 | 0.0 | 0.00 | 0.36 | 0.36 | 95 | 1012.1 |
| 20260904094551 | 72 | 230 | 0.0 | 0.0 | 0.01 | 0.36 | 0.36 | 95 | 1012.1 |
| 20260904093055 | 72 | 231 | 0.0 | 0.0 | 0.01 | 0.36 | 0.36 | 95 | 1012.3 |
| 20260904091550 | 72 | 178 | 0.0 | 1.0 | 0.01 | 0.36 | 0.36 | 95 | 1012.1 |
| 20260904090052 | 72 | 175 | 0.0 | 0.0 | 0.00 | 0.35 | 0.35 | 95 | 1012.5 |
| 20260904084549 | 72 | 175 | 0.0 | 0.0 | 0.00 | 0.35 | 0.35 | 95 | 1012.5 |
| 20260904083049 | 72 | 175 | 0.0 | 0.0 | 0.02 | 0.35 | 0.35 | 95 | 1012.3 |
| 20260904081549 | 72 | 175 | 0.0 | 0.0 | 0.04 | 0.35 | 0.35 | 95 | 1012.1 |
| 20260904080052 | 72 | 175 | 0.0 | 0.0 | 0.06 | 0.35 | 0.35 | 94 | 1012.3 |
| 20260904074545 | 73 | 175 | 0.0 | 0.0 | 0.07 | 0.35 | 0.35 | 94 | 1012.9 |
| 20260904073050 | 73 | 175 | 0.0 | 0.0 | 0.09 | 0.33 | 0.33 | 95 | 1013.4 |
| 20260904071543 | 73 | 175 | 0.0 | 1.0 | 0.08 | 0.31 | 0.31 | 95 | 1013.2 |
| 20260904070043 | 73 | 176 | 0.0 | 1.0 | 0.08 | 0.28 | 0.28 | 94 | 1013.0 |
| 20260904064545 | 73 | 176 | 0.0 | 0.0 | 0.09 | 0.28 | 0.28 | 94 | 1013.5 |
| 20260904063041 | 73 | 133 | 0.0 | 0.0 | 0.09 | 0.24 | 0.24 | 94 | 1013.8 |
| 20260904061547 | 74 | 192 | 0.0 | 1.0 | 0.23 | 0.23 | 0.23 | 94 | 1014.5 |
| 20260904060038 | 74 | 282 | 0.0 | 4.0 | 0.21 | 0.21 | 0.21 | 94 | 1014.6 |
| 20260904054538 | 74 | 275 | 0.0 | 3.0 | 0.19 | 0.19 | 0.19 | 92 | 1014.6 |
| 20260904053034 | 76 | 267 | 0.0 | 8.0 | 0.15 | 0.15 | 0.15 | 92 | 1014.2 |
| 20260904051533 | 78 | 259 | 2.0 | 10.0 | 0.00 | 0.00 | 0.00 | 87 | 1013.8 |
| 20260904050025 | 79 | 103 | 0.0 | 0.0 | 0.00 | 0.00 | 0.00 | 95 | 1013.1 |
| 20260904044535 | 79 | 103 | 0.0 | 0.0 | 0.00 | 0.00 | 0.00 | 95 | 1012.4 |
| 20260904043022 | 78 | 103 | 0.0 | 0.0 | 0.00 | 0.00 | 0.00 | 95 | 1012.6 |
| 20260904041532 | 78 | 103 | 0.0 | 0.0 | 0.00 | 0.00 | 0.00 | 94 | 1012.3 |
| 20260904040019 | 78 | 103 | 0.0 | 0.0 | 0.00 | 0.00 | 0.00 | 94 | 1012.5 |
| 20260904034517 | 78 | 103 | 0.0 | 0.0 | 0.00 | 0.00 | 0.00 | 94 | 1012.8 |
| 20260904033017 | 78 | 103 | 0.0 | 0.0 | 0.00 | 0.00 | 0.00 | 94 | 1013.0 |
| 20260904031516 | 78 | 103 | 0.0 | 0.0 | 0.00 | 0.00 | 0.00 | 94 | 1013.1 |
| 20260904030016 | 79 | 103 | 0.0 | 0.0 | 0.00 | 0.00 | 0.00 | 94 | 1013.3 |
| 20260904024515 | 79 | 103 | 0.0 | 0.0 | 0.00 | 0.00 | 0.00 | 94 | 1013.1 |
| 20260904023015 | 79 | 103 | 0.0 | 0.0 | 0.00 | 0.00 | 0.00 | 94 | 1013.0 |
| 20260904021516 | 79 | 103 | 0.0 | 0.0 | 0.00 | 0.00 | 0.00 | 93 | 1013.0 |
| 20260904020014 | 79 | 103 | 0.0 | 0.0 | 0.00 | 0.00 | 0.00 | 93 | 1013.3 |
| 20260904014514 | 79 | 103 | 0.0 | 0.0 | 0.00 | 0.00 | 0.00 | 93 | 1013.6 |
| 20260904013013 | 79 | 103 | 0.0 | 0.0 | 0.00 | 0.00 | 0.00 | 93 | 1013.8 |
| 20260904011512 | 80 | 103 | 0.0 | 0.0 | 0.00 | 0.00 | 0.00 | 93 | 1014.1 |
| 20260904010012 | 80 | 103 | 0.0 | 0.0 | 0.00 | 0.00 | 0.00 | 93 | 1014.3 |
| 20260904004512 | 80 | 103 | 0.0 | 0.0 | 0.00 | 0.00 | 0.00 | 92 | 1014.1 |
| 20260904003012 | 80 | 103 | 0.0 | 0.0 | 0.00 | 0.00 | 0.00 | 92 | 1014.0 |
| 20260904001511 | 81 | 103 | 0.0 | 0.0 | 0.00 | 0.00 | 0.00 | 91 | 1013.6 |
| 20260904000012 | 81 | 103 | 0.0 | 0.0 | 0.00 | 0.00 | 0.00 | 90 | 1013.4 |